Weather Roundup
Issued by NWS Chicago, IL

Home | Current Version | Previous Version | Graphics & Text | Print | Product List | Glossary On
Versions: 1 2 3 4 5 6 7 8 9 10 11 12 13 14 15 16 17 18 19 20 21 22 23 24 25 26 27 28 29 30 31 32 33 34 35 36 37 38 39 40 41 42 43 44 45 46 47 48 49 50
000
NZUS59 KLOT 021108
HRRLOT

CHICAGO AREA WEATHER ROUNDUP
NATIONAL WEATHER SERVICE CHICAGO/ROMEOVILLE IL
600 AM CDT MON MAY 02 2016

NOTE: "FAIR" INDICATES FEW OR NO CLOUDS BELOW 12,000 FEET WITH NO
SIGNIFICANT WEATHER AND/OR OBSTRUCTIONS TO VISIBILITY.

* THESE STATIONS ARE NOT UNDER NWS QUALITY CONTROL. THEY ALSO MAY NOT
  REPORT WEATHER SUCH AS PRECIPITATION OR FOG.

ILZ005-006-012>014-019>023-021200-
NORTHEAST ILLINOIS

CITY           SKY/WX    TMP DP  RH WIND       PRES   REMARKS
OHARE          MOCLDY    45  37  73 N7        30.04R
MIDWAY         MOCLDY    46  37  71 NE13      30.03S
AURORA         CLOUDY    46  40  79 NE10      30.04S
LANSING*       CLOUDY    44  40  86 NE13G21   30.02R
JOLIET*        PTCLDY    45  41  86 N7        30.03S
WAUKEGAN       PTCLDY    43  40  89 N5        30.05R
DUPAGE AIRPORT CLOUDY    43  37  79 N9        30.04S
WHEELING       CLOUDY    43  37  79 N6        30.06R
KANKAKEE*      CLOUDY    44  42  93 N6        30.03R
MORRIS*        MOCLDY    44  41  89 CALM      30.03R
LEWIS AIRPORT* PTCLDY    44  38  80 NE13G18   30.03S
$$

WIZ051-052-058>065-066-070>072-021200-
SOUTHEAST WISCONSIN

CITY           SKY/WX    TMP DP  RH WIND       PRES   REMARKS
MILWAUKEE      PTCLDY    40  36  86 N7        30.07R
KENOSHA*       PTCLDY    42  38  85 N7        30.06R
RACINE*        CLEAR     41  37  86 NW5       30.10R
BURLINGTON     PTCLDY    41  39  94 N5        30.07S
WAUKESHA       CLEAR     39  36  87 N3        30.08S
WEST BEND      CLEAR     37  34  87 CALM      30.08S
$$

INZ001>003-010>013-019-020-021200-
NORTHWEST INDIANA

CITY           SKY/WX    TMP DP  RH WIND       PRES   REMARKS
GARY*          CLOUDY    46  46 100 NE12G23   30.03S
MICHIGAN CITY* NOT AVBL
RENSSELAER*    NOT AVBL
VALPARAISO     CLOUDY    44  43  96 N9        30.00R
$$

LMZ740>746-021200-
SOUTHERN LAKE MICHIGAN

STATION/POSITION TIME  SKY/WX   TEMP WIND        PRES    VSBY
                                AIR  DIR/SP/G
                 (UTC)          (F)  (DEG/KT/KT) (MB)    (MI)
HARRISON CRIB    1000            45   20/ 17/ 18   N/A
BURNHAM HARBOR   1100            45  340/ 12/ 14   N/A
CALUMET HARBOR   1000            44   10/ 11/ 16 1016.3R
BURNS HARBOR     1022            45   30/ 19/ 23 1016.6R
MICHIGAN CITY    1000            43  360/ 21/ 22   N/A
$$

ABBREVIATIONS USED IN REMARKS
   TC - TEMPERATURE IN CELSIUS
  WCI - WIND CHILL INDEX
   HX - HEAT INDEX
  VSB - VISIBILITY
$$




USA.gov is the U.S. government's official web portal to all federal, state and local government web resources and services.